Location: ??????????
(44.2167°N, 135.5333°E)
Time: 15:24:18
(UTC+00:00)

Cosmos 2098 Rocket - Pass Details

Date: 15 June 2025
Orbit: 351 x 914 km, 82.9° (Epoch: 15 July)

Event Time Altitude Azimuth Distance (km) Brightness Sun altitude
Rises 18:07:40 0° 340° (NNW) 2,678 6.7 -9.8°
Reaches altitude 10° 18:10:15 10° 327° (NNW) 1,679 5.5 -9.5°
Maximum altitude 18:13:09 23° 273° (W) 996 3.8 -9.1°
Enters shadow 18:15:18 13° 224° (SW) 1,339 4.1 -8.8°
